Powrót do katalogu

DUMMY MASS 2

AktywnyNaukaPO
NORAD 24926·PAYLOAD·🇨🇳 China

Wystrzelony Sep 1, 1997 z Taiyuan Satellite Launch Center

Loading…

Następne Przeloty (najbliższe 24 godziny)

TLE

ŚwieżeSource: Space-Track

Epoka: Sep 14, 2026, 02:06 UTC

1 24926U 97048B   26257.08773778  .00000233  00000-0  22746-4 0  9993
2 24926  86.3300 286.9695 0007280   7.9735 352.1605 14.87138681572359

Śledź DUMMY MASS 2 w czasie rzeczywistym z AllMySat

Download on the App Store